Regional Weather Roundup
Issued by NWS

Home | Current Version | Previous Version | Graphics & Text | Print | Product List | Glossary On
Versions: 1 2 3 4 5 6 7 8 9 10 11 12 13 14 15 16 17 18 19 20 21 22 23 24 25 26 27 28 29 30 31 32 33 34 35 36 37 38 39 40 41 42 43 44 45 46 47 48 49 50
000
ASUS43 KMKX 241921
RWRWI

WISCONSIN REGIONAL WEATHER ROUNDUP
NATIONAL WEATHER SERVICE MILWAUKEE/SULLIVAN WI
200 PM CDT SUN SEP 24 2017

NOTE: "FAIR" INDICATES FEW OR NO CLOUDS BELOW 12,000 FEET WITH NO
SIGNIFICANT WEATHER AND/OR OBSTRUCTIONS TO VISIBILITY.

WIZ001-002-006>008-014>016-023>028-242000-
NORTHWEST WISCONSIN

CITY           SKY/WX    TMP DP  RH WIND       PRES   REMARKS
SUPERIOR ARPT  MOSUNNY   69  65  84 E7        29.90F
ASHLAND        MOSUNNY   88  66  48 SW17G25   29.92F HX  90
HAYWARD        MOSUNNY   85  62  46 S18       29.95F HX  85
SIREN          MOSUNNY   86  61  42 S14G25    29.92F HX  86
CUMBERLAND     MOSUNNY   82  63  51 S12       29.95F HX  83
RICE LAKE      SUNNY     87  61  42 S14       29.96F HX  86
CHETEK         SUNNY     86  64  48 S9G16     29.95F HX  87
LADYSMITH      SUNNY     86  58  37 S16       29.99F HX  85
EAU CLAIRE     SUNNY     87  62  43 SW16      29.95F HX  87
MENOMONIE      SUNNY     87  63  44 S14       29.95F HX  88
NEW RICHMOND   MOSUNNY   87  62  42 S16G22    29.93F HX  87
OSCEOLA        SUNNY     88  63  43 S12G20    29.94F HX  88
$$

WIZ003>005-009-010-017-018-242000-
NORTH CENTRAL WISCONSIN

CITY           SKY/WX    TMP DP  RH WIND       PRES   REMARKS
MANITOWISH WTR NOT AVBL
ARBOR VITAE    SUNNY     85  60  41 S14G20    30.01F HX  85
WOODRUFF       SUNNY     85  60  41 S14G20    30.01F HX  85
RHINELANDER    SUNNY     86  62  44 SW16G23   30.03F HX  86
EAGLE RIVER    MOSUNNY   84  58  40 SW8       30.02F HX  84
LAND O LAKES   MOSUNNY   86  58  39 SW10G20   30.03F HX  85
PHILLIPS       SUNNY     85  59  41 SW16G23   29.98F HX  85
TOMAHAWK       MOSUNNY   84  60  44 S6        30.02F HX  84
MEDFORD        MOSUNNY   85  61  44 S14       30.01F HX  85
MERRILL        SUNNY     88  62  42 SW13G18   30.02F HX  88
$$

WIZ029-030-035-036-043>047-242000-
CENTRAL WISCONSIN

CITY           SKY/WX    TMP DP  RH WIND       PRES   REMARKS
WAUSAU         PTSUNNY   85  61  44 S12       30.00F HX  85
MOSINEE        MOSUNNY   86  61  42 S13G20    30.02F HX  86
MARSHFIELD     MOSUNNY   86  60  41 S15G22    30.01F HX  86
STEVENS POINT  MOSUNNY   86  61  42 S16G22    30.02F HX  86
WAUPACA        SUNNY     91  62  38 S13       30.02F HX  91
WAUTOMA        SUNNY     89  62  40 S14       30.01  HX  89
WISC RAPIDS    SUNNY     88  63  43 SW13      30.02F HX  89
CAMP DOUGLAS   MOSUNNY   90  61  37 S12       30.00F HX  89
$$

WIZ011>013-019>022-031-037>040-048>050-242000-
NORTHEAST WISCONSIN

CITY           SKY/WX    TMP DP  RH WIND       PRES   REMARKS
ANTIGO         MOSUNNY   85  63  47 S14       30.04F HX  86
SHAWANO        MOSUNNY   91  63  39 SW9       30.01F HX  91
OCONTO         SUNNY     89  66  47 S7        30.01F HX  91
STURGEON BAY   SUNNY     87  68  52 SE9       30.04F HX  90
GREEN BAY      SUNNY     89  65  44 SW13      30.02F HX  91
MANITOWOC      SUNNY     81  68  64 SE8       30.05F HX  84
APPLETON       MOSUNNY   88  57  35 S14       30.03F HX  86
CLINTONVILLE   SUNNY     90  61  37 SW13G18   30.02F HX  89
OSHKOSH        SUNNY     88  65  46 S15G21    30.03F HX  90
$$

WIZ032>034-041-042-053>061-242000-
SOUTHWEST WISCONSIN

CITY           SKY/WX    TMP DP  RH WIND       PRES   REMARKS
LA CROSSE      SUNNY     92  61  35 S12G22    29.96F HX  92
SPARTA         SUNNY     88  60  38 S8G20     29.99F HX  88
VIROQUA        MOSUNNY   88  60  38 S7        30.01F HX  87
BOSCOBEL       SUNNY     91  60  35 S9G17     29.99F HX  90
PRAIRIE DU CHI SUNNY     90  56  32 S9        29.97F HX  88
PLATTEVILLE    SUNNY     88  62  41 S10       30.02F HX  88
$$

WIZ056-057-062-063-064-067-068-242000-
SOUTH CENTRAL WISCONSIN

CITY           SKY/WX    TMP DP  RH WIND       PRES   REMARKS
REEDSBURG      SUNNY     89  62  40 S7G16     30.00F HX  89
BARABOO/DELLS  SUNNY     88  55  32 S10       30.02F HX  86
LONE ROCK      SUNNY     90  62  39 S15G21    29.99F HX  90
MINERAL POINT  SUNNY     90  59  35 S10G17    30.03F HX  89
MADISON        SUNNY     89  59  36 S16G22    30.02F HX  88
MIDDLETON      SUNNY     90  56  31 S9G17     30.03F HX  88
WATERTOWN      SUNNY     88  63  42 S12G17    30.03F HX  89
MONROE         SUNNY     88  54  31 S16       30.03F HX  86
JANESVILLE     SUNNY     91  54  27 S15       30.03F HX  89
$$

WIZ051-052-058>065-066-070>072-242000-
SOUTHEAST WISCONSIN

CITY           SKY/WX    TMP DP  RH WIND       PRES   REMARKS
MILWAUKEE      MOSUNNY   87  65  47 SE17      30.04F HX  89
WAUKESHA       MOSUNNY   88  59  37 SW10G17   30.06F HX  87
MILWAUKEE/TIMM MOSUNNY   90  54  29 SW8       30.05F HX  87
RACINE         SUNNY     87  65  47 SE13      30.07F HX  89
BURLINGTON     SUNNY     91  62  37 S10       30.05F HX  91
KENOSHA        MOSUNNY   90  62  39 VRB6      30.05F HX  90
FOND DU LAC    SUNNY     88  61  40 S14G21    30.03F HX  88
SHEBOYGAN      SUNNY     88  70  55 S10       30.05F HX  93
WEST BEND        N/A     88  55  33 S12       30.05S HX  86
JUNEAU         SUNNY     87  62  43 SE13G18   30.05F HX  87
$$

LSZ147-162-242000-
LAKE SUPERIOR

STATION/POSITION TIME  TEMP    WIND        PRES    WAVE
                       AIR SEA DIR/SP/G            HT/PER
                 (UTC) (F)     (DEG/KT/KT) (MB)    (FT/S)
W MID LAKE BUOY  1850   67 58  120/  4/  6 1012.8F   1
DEVILS ISLAND    1900   65      20/  5/  6 1012.8F
SAXON HARBOR     1830   87     200/ 14/ 21 1012.9F
$$

LMZ867-665-643>646-242000-
LAKE MICHIGAN

STATION/POSITION TIME  TEMP    WIND        PRES    WAVE
                       AIR SEA DIR/SP/G            HT/PER
                 (UTC) (F)     (DEG/KT/KT) (MB)    (FT/S)
S GREEN BAY BUOY 1900   80 70   80/  2/  2 1016.5
N MID LAKE BUOY  1850   69 67  190/ 10/ 10 1018.2F   1/ 3
NORTHPORT PIER   1840   74     140/  8/  9 1017.3F
KEWAUNEE LAKESHO 1900   67     180/  8/  9 1016.7
SHEBOYGAN LAKESH 1900   71     160/ 10/ 10 1017.0F
PORT WASHINGTON  1830   76     170/  5/  6 1018.6F
ATWATER BUOY     1809   71 65  170/  4/  6 1017.9F
MILWAUKEE LAKESH 1900   70     140/ 12/ 13   N/A
S MID LAKE BUOY  1850   73 71  140/  6/  6 1018.4F   1
KENOSHA   LAKESH 1900   76     150/ 10/ 11 1017.3
$$

TC  - TEMPERATURE IN CELSIUS
VSB - VISIBILITY IN STATUTE MILES
WCI - WIND CHILL INDEX
HX  - HEAT INDEX





USA.gov is the U.S. government's official web portal to all federal, state and local government web resources and services.